Showing default

KUIPER-00482, 68877

Orbit data source: Space-Track

KUIPER-00482, 68877 is an American payload satellite in LEO that was launched on Tue, 28 Apr 2026 UTC launched from the Air Force Eastern Test Range (AFETR). Payload-class satellites include a variety of spacecraft equipped with specific instruments for various scientific and technological missions. These include communications satellites like Starlink; space stations such as the ISS; scientific satellites like the Hubble; Earth observation satellites from companies like Planet Labs, Umbra, and HawkEye 360; GPS; miniature CubeSats for education and research; and military/defense satellites.

Loading next visibility...
Identifier
68877, 2026-095P
Orbit
LEO
Country
Flag of USUS
Related business
None
Manufacturer
Unknown
Mission
Operational spacecraft
Bus & Motor
Unknown
Mass
Unknown
Launch date (UTC)
2026-04-28 (4 days ago)
Launch vehicle
Unknown
Launch site
Air Force Eastern Test Range (AFETR)
Object type
Payload
Rocket body
Debris
Shape & HBR
Unknown
Radar Cross Section
RCS unknown

Expand to show TLE details & history
Last TLE update: 7 hours ago

TLE from 7 hours ago
0 KUIPER-00482
1 68877U 26095P   26122.16670139  .00001810  00000-0  57927-4 0  9998
2 68877  51.8827 104.8774 0002833  95.5269 118.9860 15.38062424  1371
Epoch: 2026-05-02T04:00Z
TLE epoch observation values (Epoch: 2026-05-02T04:00:03.000Z)
Latitude
-26.69055°
Longitude
27.87155°
Altitude
460.529 km
Speed
7.636 km/s
True Right ascension
20h 31m 53s
True Declination
-26° 32' 48"
Sunlit
Object was in daylight at epoch
Visualization orbit readout
Latitude
Unknown
Longitude
Unknown
Altitude
Unknown
Speed
Unknown
Apparent Right ascension
Unknown
Apparent Declination
Unknown
Sunlit
N/A
Visualization observer readout
Local Sidereal Time
18:39:10
Azimuth
Unknown
Elevation
Unknown
Doppler factor
Unknown
Orbital elements
Apogee altitude
454.24 km
Perigee altitude
450.37 km
Semi-major axis
6,830.442 km
Eccentricity
0.00028
Inclination
51.8827°
RAAN
104.8774°
Arg. of periapsis
95.5269°
True anomaly
119.01439°
Mean anomaly
118.986°
Eccentric anomaly
119.0002°
Mean motion
3.84477 °/min
Orbital period
93.63 mins
BSTAR
0.000057927
Loading maneuver chart data...
Computing Atmospheric mass density...
Loading historical data...
Loading historical data...
Loading historical data...
Loading historical data...
Loading historical data...
Loading historical data...
Loading historical data...

Documentation

Showing up to 5 results
|